Location: *
(46.3500°N, 10.9000°E)
Time: 13:42:23
(UTC+00:00)

Cosmos 540 Rocket - Pass Details

Date: 09 April 2020
Orbit: 741 x 753 km, 74.1° (Epoch: 02 June)

Event Time Altitude Azimuth Distance (km) Brightness Sun altitude
Rises 21:27:49 0° 332° (NNW) 3,211 7.9 -30.4°
Reaches altitude 10° 21:30:17 10° 326° (NW) 2,280 6.9 -30.6°
Enters shadow 21:34:19 40° 282° (WNW) 1,099 4.5 -30.9°
